Three Rivers, MI

5:31 PM EDT on October 17, 2017 (GMT -0400)
Three Rivers Municipal-Haines

Weather History for KHAI - February, 2013

Change the Weather History Date:

Tuesday, February 5, 2013

  Actual Average Record
Temperature  
Mean Temperature 18 °F -  
Max Temperature 29 °F 31 °F 54 °F (1991)
Min Temperature 6 °F 14 °F -6 °F (1961)
Degree Days  
Heating Degree Days 48    
Moisture  
Dew Point 17 °F    
Average Humidity 87    
Maximum Humidity 93    
Minimum Humidity 74    
Precipitation  
Precipitation 0.00 in - - ()
Sea Level Pressure  
Sea Level Pressure 29.88 in    
Wind  
Wind Speed 4 mph (SW)    
Max Wind Speed 15 mph    
Max Gust Speed 18 mph    
Visibility 5 miles    
Events Fog , Snow    
Averages and records for this station are not official NWS values.
T = Trace of Precipitation, MM = Missing Value Source: NWS Daily Summary

Daily Weather History Graph

Daily Weather History Graph

Search for Another Location

Airport or City:

Trip Planner

Search our weather history database for the weather conditions in past years. The results will help you decide how hot, cold, wet, or windy it might be!

Date:

Astronomy

Feb. 05, 2013 Rise Set
Actual Time 7:50 AM EST 6:02 PM EST
Civil Twilight 7:21 AM EST 6:32 PM EST
Nautical Twilight 6:48 AM EST 7:05 PM EST
Astronomical Twilight 6:15 AM EST 7:37 PM EST
Moon 3:33 AM EST (2/5) 1:17 PM EST (2/5)
Length of Visible Light 11h 10m
Length of Day
10h 12m
Waning Crescent, 27% of the Moon is Illuminated
Feb 5
Waning Crescent
Feb 10
New
Feb 17
First Quarter
Feb 25
Full
Mar 4
Last Quarter

Hourly Weather History & Observations

Time (EST) Temp. Windchill Dew Point Humidity Pressure Visibility Wind Dir Wind Speed Gust Speed Precip Events Conditions
12:15 AM 17.8 °F 12.5 °F 14.5 °F 87% 29.92 in 10.0 mi NE 3.5 mph - N/A   Clear
12:34 AM 18.0 °F - 14.0 °F 84% 29.91 in 10.0 mi Calm Calm - N/A   Clear
12:55 AM 16.5 °F - 13.1 °F 86% 29.92 in 10.0 mi Calm Calm - N/A   Clear
1:15 AM 16.0 °F - 12.7 °F 87% 29.91 in 10.0 mi Calm Calm - N/A   Clear
1:34 AM 15.4 °F - 12.2 °F 87% 29.91 in 10.0 mi Calm Calm - N/A   Clear
1:55 AM 13.8 °F - 10.9 °F 88% 29.92 in 5.0 mi Calm Calm - N/A   Clear
2:14 AM 13.5 °F - 11.1 °F 90% 29.92 in 5.0 mi Calm Calm - N/A   Clear
2:34 AM 12.7 °F - 10.4 °F 90% 29.92 in 5.0 mi Calm Calm - N/A   Scattered Clouds
2:55 AM 14.0 °F - 11.8 °F 91% 29.91 in 7.0 mi Calm Calm - N/A   Scattered Clouds
3:14 AM 14.7 °F - 12.6 °F 91% 29.91 in 7.0 mi Calm Calm - N/A   Mostly Cloudy
3:35 AM 15.8 °F - 13.3 °F 90% 29.90 in 7.0 mi Calm Calm - N/A   Mostly Cloudy
3:55 AM 14.7 °F - 12.2 °F 90% 29.90 in 7.0 mi Calm Calm - N/A   Scattered Clouds
4:14 AM 15.6 °F - 13.1 °F 90% 29.89 in 7.0 mi Calm Calm - N/A   Scattered Clouds
4:35 AM 14.2 °F - 11.7 °F 90% 29.89 in 7.0 mi Calm Calm - N/A   Clear
4:55 AM 10.4 °F - 7.7 °F 89% 29.90 in 5.0 mi Calm Calm - N/A   Clear
5:14 AM 10.6 °F - 8.1 °F 90% 29.90 in 4.0 mi Calm Calm - N/A   Clear
5:35 AM 9.9 °F - 7.2 °F 89% 29.89 in 1.2 mi Calm Calm - N/A   Mist
5:55 AM 10.2 °F - 7.7 °F 90% 29.89 in 1.0 mi Calm Calm - N/A   Mist
6:14 AM 6.4 °F - 3.4 °F 87% 29.90 in 0.5 mi Calm Calm - N/A Fog Light Freezing Fog
6:35 AM 7.5 °F - 4.5 °F 87% 29.91 in 3.0 mi Calm Calm - N/A   Clear
6:54 AM 6.1 °F - 3.2 °F 88% 29.90 in 0.2 mi Calm Calm - N/A Fog Light Freezing Fog
7:15 AM 6.3 °F - 3.2 °F 87% 29.89 in 4.0 mi Calm Calm - N/A   Scattered Clouds
7:35 AM 6.6 °F - 3.6 °F 87% 29.90 in 4.0 mi Calm Calm - N/A   Scattered Clouds
7:54 AM 7.2 °F - 4.1 °F 87% 29.91 in 3.0 mi Calm Calm - N/A   Clear
8:15 AM 8.4 °F - 5.5 °F 88% 29.91 in 4.0 mi Calm Calm - N/A   Scattered Clouds
8:34 AM 11.5 °F - 9.0 °F 90% 29.91 in 4.0 mi Calm Calm - N/A   Overcast
8:54 AM 13.8 °F 6.2 °F 11.3 °F 90% 29.90 in 3.0 mi SSW 4.6 mph - N/A   Mostly Cloudy
9:15 AM 14.9 °F 9.2 °F 12.7 °F 91% 29.90 in 2.5 mi SSW 3.5 mph - N/A   Mostly Cloudy
9:34 AM 15.6 °F 7.0 °F 13.5 °F 91% 29.89 in 2.5 mi South 5.8 mph - N/A   Overcast
9:55 AM 16.3 °F 7.8 °F 14.0 °F 90% 29.89 in 2.0 mi South 5.8 mph - N/A   Overcast
10:15 AM 17.1 °F 5.8 °F 14.9 °F 91% 29.87 in 2.5 mi South 9.2 mph - N/A   Overcast
10:34 AM 18.5 °F 8.4 °F 16.3 °F 91% 29.87 in 2.5 mi South 8.1 mph - N/A   Overcast
10:54 AM 19.9 °F 9.3 °F 18.0 °F 92% 29.86 in 3.0 mi South 9.2 mph - N/A   Overcast
11:15 AM - - - N/A% 29.86 in 4.0 mi South 10.4 mph - N/A   Overcast
11:35 AM - - - N/A% 29.86 in 4.0 mi SSW 8.1 mph - N/A   Overcast
11:55 AM 23.5 °F 14.5 °F 21.7 °F 93% 29.86 in 5.0 mi SSW 8.1 mph - N/A   Overcast
12:15 PM 23.9 °F 13.5 °F 22.1 °F 93% 29.84 in 7.0 mi SSW 10.4 mph - N/A   Overcast
12:35 PM 25.0 °F 14.2 °F 22.1 °F 89% 29.82 in 7.0 mi South 11.5 mph - N/A   Overcast
12:55 PM 26.2 °F 14.7 °F 22.5 °F 86% 29.82 in 7.0 mi SSW 13.8 mph - N/A   Overcast
1:15 PM 26.6 °F 14.7 °F 22.1 °F 83% 29.82 in 10.0 mi SSW 15.0 mph - N/A   Overcast
1:34 PM 26.4 °F 15.5 °F 21.0 °F 80% 29.80 in 7.0 mi South 12.7 mph - N/A   Mostly Cloudy
1:55 PM 28.2 °F 18.3 °F 21.6 °F 76% 29.80 in 7.0 mi SSW 11.5 mph - N/A   Overcast
2:15 PM 27.9 °F 16.8 °F 20.8 °F 75% 29.79 in 7.0 mi SSW 13.8 mph - N/A   Overcast
2:34 PM 27.7 °F 17.6 °F 20.8 °F 75% 29.79 in 7.0 mi SSW 11.5 mph - N/A   Overcast
2:55 PM 28.4 °F 19.1 °F 21.2 °F 74% 29.79 in 7.0 mi SSW 10.4 mph - N/A   Overcast
3:14 PM 28.4 °F 18.5 °F 21.0 °F 74% 29.79 in 4.0 mi SW 11.5 mph - N/A Snow Light Snow
3:35 PM 28.0 °F 20.0 °F 22.1 °F 78% 29.81 in 1.2 mi SW 8.1 mph - N/A Snow Light Snow
3:55 PM 27.5 °F 21.1 °F 23.4 °F 84% 29.81 in 0.8 mi SW 5.8 mph - N/A Snow Light Snow
4:15 PM 27.0 °F 18.7 °F 23.9 °F 88% 29.81 in 0.5 mi SW 8.1 mph - N/A Snow Snow
4:35 PM 27.1 °F 18.2 °F 24.4 °F 90% 29.81 in 1.2 mi SW 9.2 mph - N/A Snow Light Snow
4:53 PM 27.3 °F 17.7 °F 24.6 °F 90% 29.81 in 1.0 mi SSW 10.4 mph - N/A Snow Light Snow
5:15 PM 27.1 °F 21.8 °F 24.4 °F 90% 29.82 in 1.5 mi SW 4.6 mph - N/A Snow Light Snow
5:34 PM 27.3 °F 20.9 °F 24.6 °F 90% 29.82 in 2.0 mi SW 5.8 mph - N/A Snow Light Snow
5:55 PM 27.5 °F 21.1 °F 24.8 °F 90% 29.83 in 4.0 mi WSW 5.8 mph - N/A   Overcast
6:15 PM 27.9 °F 22.6 °F 25.2 °F 90% 29.84 in 5.0 mi WSW 4.6 mph - N/A   Overcast
6:34 PM 28.2 °F 21.0 °F 25.5 °F 90% 29.84 in 7.0 mi WSW 6.9 mph - N/A   Overcast
6:55 PM 29.1 °F 20.0 °F 25.5 °F 86% 29.85 in 10.0 mi West 10.4 mph - N/A   Overcast
7:15 PM 29.1 °F 20.0 °F 25.3 °F 86% 29.85 in 10.0 mi West 10.4 mph 16.1 mph N/A   Overcast
7:35 PM 29.1 °F 20.0 °F 25.2 °F 85% 29.86 in 7.0 mi West 10.4 mph - N/A   Overcast
7:55 PM 29.1 °F 19.4 °F 25.3 °F 86% 29.87 in 7.0 mi WNW 11.5 mph - N/A   Overcast
8:15 PM 29.1 °F 19.4 °F 25.5 °F 86% 29.88 in 7.0 mi WNW 11.5 mph - N/A   Overcast
8:35 PM 29.1 °F 20.6 °F 25.5 °F 86% 29.90 in 5.0 mi WNW 9.2 mph - N/A   Overcast
8:55 PM 29.1 °F 19.4 °F 25.7 °F 87% 29.90 in 4.0 mi West 11.5 mph 16.1 mph N/A   Overcast
9:15 PM 29.1 °F 19.4 °F 26.2 °F 89% 29.91 in 3.0 mi WNW 11.5 mph 17.3 mph N/A   Overcast
9:34 PM 29.1 °F 20.0 °F 26.4 °F 90% 29.92 in 3.0 mi WNW 10.4 mph 18.4 mph N/A   Overcast
10:15 PM 29.5 °F 21.8 °F 26.4 °F 88% 29.94 in 5.0 mi WNW 8.1 mph 16.1 mph N/A   Overcast
10:35 PM 28.9 °F 21.9 °F 25.7 °F 88% 29.95 in 7.0 mi NW 6.9 mph - N/A   Overcast
10:55 PM 28.9 °F 21.1 °F 25.7 °F 88% 29.96 in 7.0 mi WNW 8.1 mph - N/A   Overcast
11:15 PM 28.9 °F 21.1 °F 25.5 °F 87% 29.97 in 10.0 mi WNW 8.1 mph - N/A   Overcast
11:34 PM 28.8 °F 20.9 °F 25.2 °F 86% 29.97 in 7.0 mi NW 8.1 mph - N/A   Overcast
11:55 PM 28.8 °F 20.9 °F 24.4 °F 84% 29.97 in 7.0 mi NW 8.1 mph - N/A   Overcast